Flag for U.S.A. Weather past 2 weeks in Fort Myers, Florida, U.S.A.

Now
89 °F

Broken clouds.


Feels Like: 100 °F
Forecast: 73 / 90 °F
Wind: 8 mph from East

Location: Page Field

Current Time: Aug 29, 2015 at 1:32:47 PM

Latest Report: Aug 29, 2015 at 12:53 PM


Visibility: 10 mi

Pressure: 30.03 "Hg

Humidity: 65%

Dew point: 76 °F

Location of Fort MyersLocation

Historic Weather in Fort Myers — Graph

°F

Fort Myers temperature yesterday

Maximum temperature yesterday: 91 °F (at 1:53 PM)
Minimum temperature yesterday: 74 °F (at 11:53 PM)
Average temperature yesterday: 80 °F

Past Weeks' High & Low Weather Summary

 TemperatureHumidityPressure
High95 °F (Aug 23, 4:53 PM)100% (Aug 26, 10:53 PM)30.09 "Hg (Aug 26, 10:53 PM)
Low73 °F (Aug 15, 6:53 AM)44% (Aug 24, 1:53 PM)29.85 "Hg (Aug 24, 6:53 PM)
Average81 °F81%29.99 "Hg
* Reported Aug 14 11:53 AM — Aug 29 11:53 AM, Fort Myers, Weather by CustomWeather, © 2015

Note: Actual official high and low records may vary slightly from our data, if they occured in-between our weather recording intervals... More about our weather records

Advertising

Fort Myers weather history for previous 24 hours

 ConditionsComfort  
Time TempWeatherWind HumidityBarometerVisibility
11:53 AM
Sat, Aug 29
87 °FScattered clouds.7 mph69%30.05 "Hg10 mi
11:03 AM85 °FPartly sunny.7 mph77%30.05 "Hg10 mi
10:53 AM86 °FScattered clouds.7 mph75%30.05 "Hg10 mi
9:53 AM84 °FSunny.5 mph83%30.05 "Hg10 mi
8:53 AM81 °FSunny.7 mph88%30.04 "Hg10 mi
7:53 AM75 °FClear.7 mph96%30.03 "Hg9 mi
6:53 AM74 °FClear.6 mph97%30.03 "Hg10 mi
5:53 AM74 °FClear.5 mph94%30.01 "Hg10 mi
4:53 AM73 °FClear.5 mph97%30.01 "Hg10 mi
3:53 AM73 °FClear.7 mph94%30.01 "Hg10 mi
2:53 AM73 °FClear.3 mph97%30.01 "Hg10 mi
1:53 AM73 °FClear.7 mph97%30.03 "Hg10 mi
12:53 AM74 °FClear.No wind94%30.03 "Hg10 mi
11:53 PM
Fri, Aug 28
74 °FClear.5 mph94%30.05 "Hg10 mi
10:53 PM75 °FClear.7 mph94%30.06 "Hg10 mi
9:53 PM75 °FClear.9 mph94%30.05 "Hg10 mi
8:53 PM75 °FClear.7 mph94%30.03 "Hg10 mi
7:53 PM75 °FScattered clouds.8 mph96%30.03 "Hg10 mi
6:56 PM75 °FRain. Fog.10 mph96%30.03 "Hg3 mi
5:53 PM83 °FThunderstorms. Partly sunny.15 mph74%29.99 "Hg10 mi
5:04 PM84 °FThundershowers. Scattered clouds.18 mph70%29.98 "Hg10 mi
4:56 PM83 °FBroken clouds.18 mph77%29.98 "Hg10 mi
3:53 PM89 °FBroken clouds.8 mph59%29.95 "Hg10 mi
3:01 PM89 °FThundershowers. Mostly cloudy.10 mph55%29.97 "Hg10 mi
1:53 PM91 °FScattered clouds.8 mph52%29.99 "Hg10 mi
Weather by CustomWeather, © 2015

See weather overviewHow to use our weather pages